"Pseudo-MPEC" for P21JNc6

Created 2023 Sep 19 11:22:48 UT using Find_Orb

Click here for an explanation of pseudo-MPECs

 
 Astrometry: 
     P21JNc6  C2023 09 08u%)MX;m-(8)0YGDei%Q9!cb_\5]8%Xq.`P#S7,ktpKunjtuDgvb]F52
     P21JNc6  C2023 09 08^G@M^2Sp*;V4s/%%USO(DJGrEk9u-w4.=alO:=30sG)]b83kr5BcF52
     P21JNc6  C2023 09 08-A.!px*$;lKD`hXp;YSx:o6Mabiv^,^%;_P17Z5RL`AstrometryF52
     P21JNc6  C2023 09 08PgNb7DvkB6:3=!u-R4mj9.)is@$/L*IqRe/vaTQn+nJ[UoIlb1u,F52
     P21JNc6* C2023 09 17+;0ng:=C2o.uEI)TwIIG*X#S'o9DHredacted;x9XlL/$8Yf3X6vF52
     P21JNc6  C2023 09 17Dnmo^Ls8-BTgxZ4ja`Teyg+fEA]B@+B39Mr!JL!k(KpDf1R+d?7PF52
     P21JNc6  C2023 09 17e23aR]@s=Y6ZJ\oy6Ao4-gmj,*uclickK.fo'I5TAHT1]YMsNLcoF52
     P21JNc6  C2023 09 17vwWdhereJGKTBvJ*=s1@b?a1trHSA'*Q'.%F2q@HGjRdd+L7F71sF52
     P21JNc6  C2023 09 179sZFyQV_[FKaqkc[o]ygforB%Bqj;1/hkUBd,xdE3dpN[akSv`6PF52
     P21JNc6 KC2023 09 18.23185000 23 49.261+06 18 30.13   ~9I67 21.63GVNEOCPI52
     P21JNc6 KC2023 09 18.23497800 23 49.398+06 18 05.40   ~9I67 21.02GVNEOCPI52
     P21JNc6 KC2023 09 18.23691900 23 49.506+06 17 51.11   ~9I67 20.81GVNEOCPI52
     P21JNc6 KC2023 09 18.23886700 23 49.531+06 17 35.56   ~9I67 21.68GVNEOCPI52
     P21JNc6 3C2023 09 18N2V-UMwJ8,9^;5H!g2FPp(11sdbYU8agnnBuFm4R`rnutI`J6@xGT14
     P21JNc6 3C2023 09 18,qen*@`explanationF.Tn*):QqG7C;f=(#hx9/P:oG=,#Rb1Fm:T14
     P21JNc6 3C2023 09 18;Dfb6/WVMu_Pd7DMh^Bi_u?''MNNgiM-Qc=.?j]XtGJrtl1p[O/1T14
     P21JNc6 1C2023 09 19.27874900 24 53.377+04 06 11.09   ~9J7b 20.66GVNEOCPG96
     P21JNc6 1C2023 09 19.28395000 24 53.557+04 05 32.64   ~9J7b 21.57GVNEOCPG96
     P21JNc6 1C2023 09 19.28914600 24 53.773+04 04 54.59   ~9J7b 21.63GVNEOCPG96
     P21JNc6 1C2023 09 19.29434900 24 53.960+04 04 16.50   ~9J7b 21.11GVNEOCPG96

Station data:
(F52) Pan-STARRS 2, Haleakala  (N20.707382 W156.255910)  US/Hawaii.
   Observers J. Bulger, T. Dukes, T. Lowe, A. Schultz, M. Willman. Measurers
   K. Chambers, S. Chastel, T. de Boer, L. Denneau, J. Fairlamb, H.
   Flewelling, M. Huber, C.-C. Lin, E. Magnier, Y. Ramanjooloo, R. Wainscoat,
   R. Weryk. 1.8-m Ritchey-Chrétien + CCD.
(G96) Mt. Lemmon Survey  (N32.442751 W110.788720)  US/Arizona.  Observer E.
   J. Christensen. 1.5-m reflector + 10K CCD.
(I52) Steward Observatory, Mt. Lemmon Station  (N32.442544 W110.788920)
   US/Arizona.  Observers T. A. Pruyne, B. M. Africano, E. J. Christensen, G.
   A. Farneth, D. C. Fuls, A. R. Gibbs, A. D. Grauer, H. Gröller, J. A.
   Johnson, R. A. Kowalski, S. M. Larson, G. J. Leonard, D. Rankin, R. L.
   Seaman, F. C. Shelly, K. W. Wierzchoś. 1.0-m prime focus + CCD.
(T14) Mauna Kea-UH/Tholen NEO Follow-Up (CFHT)  (N19.825252 W155.468876)
   US/Hawaii.  Observer R. Weryk. 3.6-m Canada-France-Hawaii Telescope.

Orbital elements:  P21JNc6
   Perihelion 2023 Jul 18.62554 +/- 0.0268 TT = 15:00:46 (JD 2460144.12554)
Epoch 2023 Sep 19.0 TT = JDT 2460206.5   Earth MOID: 0.1004      AutoNEOCP
M  35.50724285 +/- 0.08             (J2000 ecliptic)
n   0.56925933 +/- 0.00105          Peri.  113.56128 +/- 0.019
a   1.44188052 +/- 0.00177          Node   177.72029 +/- 0.0023
e   0.3222026 +/- 0.000826          Incl.   16.05054 +/- 0.032
P   1.73/632.39d           H 24.83  G  0.15   U  8.1
q 0.97730274 +/- 8.28e-6    Q 1.90645830 +/- 0.00353
From 20 observations 2023 Sept. 8-19; mean residual 0".25
Residuals in arcseconds: 
230908 F52  .35-  .39+    230917 F52  .09+  .14-    230918 T14  .01+  .02-    
230908 F52  .07+  .29+    230917 F52  .07+  .27-    230918 T14  .03-  .02-    
230908 F52  .14+  .27-    230918 I52  .34+  .23-    230919 G96  .06-  .22+    
230908 F52  .13+  .42-    230918 I52  .22+  .63-    230919 G96  .33-  .05+    
230917 F52  .10+  .23+    230918 I52  .49+  .18+    230919 G96  .03-  .23+    
230917 F52  .23-  .27+    230918 I52  .47-  .23-    230919 G96  .16-  .42+    
230917 F52  .01+  .14+    230918 T14  .02+  .00     

Ephemerides (geocentric):
Date (UTC) HH   RA             Dec           delta  r     elong  mag " sig PA
---- --------  ------------   ------------  ------ ------ -----  --- --------
2023 09 19 11  00 25 02.802   +03 44 44.25  .14026 1.1426 168.7 21.5 .048 137
2023 09 19 12  00 25 05.233   +03 39 40.71  .14043 1.1427 168.7 21.5 .050 135
2023 09 19 13  00 25 07.656   +03 34 37.89  .14060 1.1429 168.8 21.5 .052 133
2023 09 19 14  00 25 10.069   +03 29 35.77  .14077 1.1431 168.9 21.5 .055 131
2023 09 19 15  00 25 12.474   +03 24 34.37  .14094 1.1433 168.9 21.5 .057 129
2023 09 19 16  00 25 14.870   +03 19 33.68  .14112 1.1435 169.0 21.5 .060 128
2023 09 19 17  00 25 17.257   +03 14 33.71  .14129 1.1437 169.1 21.5 .062 127
2023 09 19 18  00 25 19.635   +03 09 34.44  .14146 1.1439 169.2 21.5 .065 126
2023 09 19 19  00 25 22.005   +03 04 35.89  .14163 1.1440 169.2 21.5 .068 125
2023 09 19 20  00 25 24.366   +02 59 38.04  .14181 1.1442 169.3 21.5 .070 124
2023 09 19 21  00 25 26.718   +02 54 40.91  .14198 1.1444 169.4 21.5 .073 123
2023 09 19 22  00 25 29.062   +02 49 44.48  .14215 1.1446 169.4 21.5 .076 122
2023 09 19 23  00 25 31.397   +02 44 48.77  .14233 1.1448 169.5 21.5 .079 121
2023 09 20 00  00 25 33.723   +02 39 53.76  .14250 1.1450 169.5 21.5 .082 120
2023 09 20 01  00 25 36.041   +02 34 59.46  .14268 1.1452 169.6 21.5 .085 120
2023 09 20 02  00 25 38.351   +02 30 05.87  .14285 1.1453 169.7 21.5 .088 119
2023 09 20 03  00 25 40.652   +02 25 12.99  .14303 1.1455 169.7 21.5 .091 119
2023 09 20 04  00 25 42.944   +02 20 20.81  .14321 1.1457 169.8 21.5 .094 118
2023 09 20 05  00 25 45.228   +02 15 29.34  .14338 1.1459 169.9 21.5 .097 118
2023 09 20 06  00 25 47.504   +02 10 38.58  .14356 1.1461 169.9 21.5 .100 117
2023 09 20 07  00 25 49.772   +02 05 48.52  .14374 1.1463 170.0 21.5 .103 117
2023 09 20 08  00 25 52.031   +02 00 59.16  .14392 1.1465 170.0 21.5 .106 117
2023 09 20 09  00 25 54.282   +01 56 10.51  .14410 1.1466 170.1 21.5 .109 116
2023 09 20 10  00 25 56.525   +01 51 22.56  .14427 1.1468 170.1 21.5 .112 116
2023 09 20 11  00 25 58.760   +01 46 35.31  .14445 1.1470 170.2 21.5 .115 116
2023 09 20 12  00 26 00.986   +01 41 48.77  .14463 1.1472 170.3 21.5 .119 116
2023 09 20 13  00 26 03.205   +01 37 02.93  .14481 1.1474 170.3 21.5 .122 116
2023 09 20 14  00 26 05.415   +01 32 17.78  .14499 1.1476 170.4 21.5 .125 115
2023 09 20 15  00 26 07.617   +01 27 33.34  .14518 1.1478 170.4 21.5 .128 115
2023 09 20 16  00 26 09.812   +01 22 49.60  .14536 1.1480 170.5 21.5 .132 115
2023 09 20 17  00 26 11.998   +01 18 06.56  .14554 1.1481 170.5 21.5 .135 115
2023 09 20 18  00 26 14.176   +01 13 24.21  .14572 1.1483 170.6 21.5 .138 115
2023 09 20 19  00 26 16.347   +01 08 42.56  .14590 1.1485 170.6 21.5 .141 115
2023 09 20 20  00 26 18.510   +01 04 01.61  .14609 1.1487 170.7 21.5 .145 115
2023 09 20 21  00 26 20.664   +00 59 21.36  .14627 1.1489 170.7 21.5 .148 114
2023 09 20 22  00 26 22.811   +00 54 41.80  .14645 1.1491 170.8 21.5 .152 114
2023 09 20 23  00 26 24.951   +00 50 02.93  .14664 1.1493 170.8 21.5 .155 114
2023 09 21 00  00 26 27.082   +00 45 24.76  .14682 1.1495 170.9 21.5 .158 114
2023 09 21 01  00 26 29.206   +00 40 47.28  .14701 1.1496 170.9 21.5 .162 114
2023 09 21 02  00 26 31.322   +00 36 10.50  .14719 1.1498 171.0 21.5 .165 114
2023 09 21 03  00 26 33.430   +00 31 34.40  .14738 1.1500 171.0 21.5 .169 114
2023 09 21 04  00 26 35.531   +00 26 59.00  .14756 1.1502 171.0 21.5 .172 114
2023 09 21 05  00 26 37.625   +00 22 24.28  .14775 1.1504 171.1 21.5 .176 114
2023 09 21 06  00 26 39.710   +00 17 50.26  .14794 1.1506 171.1 21.5 .179 114
2023 09 21 07  00 26 41.789   +00 13 16.92  .14812 1.1508 171.2 21.5 .183 114
2023 09 21 08  00 26 43.859   +00 08 44.28  .14831 1.1510 171.2 21.5 .187 114
2023 09 21 09  00 26 45.923   +00 04 12.31  .14850 1.1511 171.2 21.5 .190 114
2023 09 21 10  00 26 47.978   -00 00 18.96  .14869 1.1513 171.3 21.5 .194 114